Regional Weather Roundup
Issued by NWS

Home | Current Version | Previous Version | Graphics & Text | Print | Product List | Glossary Off
Versions: 1 2 3 4 5 6 7 8 9 10 11 12 13 14 15 16 17 18 19 20 21 22 23 24 25 26 27 28 29 30 31 32 33 34 35 36 37 38 39 40 41 42 43 44 45 46 47 48 49 50

000
ASUS43 KMKX 032300
RWRWI

WISCONSIN REGIONAL WEATHER ROUNDUP
NATIONAL WEATHER SERVICE MILWAUKEE/SULLIVAN WI
600 PM CDT MON AUG 03 2015

NOTE: "FAIR" INDICATES FEW OR NO CLOUDS BELOW 12,000 FEET WITH NO
SIGNIFICANT WEATHER AND/OR OBSTRUCTIONS TO VISIBILITY.

WIZ001-002-006>008-014>016-023>028-040000-
NORTHWEST WISCONSIN

CITY           SKY/WX    TMP DP  RH WIND       PRES   REMARKS
SUPERIOR ARPT  PTSUNNY   70  55  59 NW10G16   29.85R
ASHLAND        PTSUNNY   70  55  59 VRB6      29.84S
HAYWARD        CLOUDY    71  52  50 VRB7      29.87S
SIREN          MOSUNNY   74  50  43 NW10      29.88F
CUMBERLAND     MOSUNNY   72  50  46 NW10G17   29.89S
RICE LAKE      PTSUNNY   74  50  42 W12G18    29.89S
CHETEK         CLOUDY    73  52  47 W8G18     29.88S
LADYSMITH      CLOUDY    71  54  55 W9        29.89S
EAU CLAIRE     NOT AVBL
MENOMONIE      MOSUNNY   75  47  37 NW12G18   29.88S
NEW RICHMOND   SUNNY     75  48  38 NW12      29.90R
OSCEOLA        MOSUNNY   75  49  40 NW10G17   29.91S
$$

WIZ003>005-009-010-017-018-040000-
NORTH CENTRAL WISCONSIN

CITY           SKY/WX    TMP DP  RH WIND       PRES   REMARKS
MANITOWISH WTR CLOUDY    66  53  62 NW9       29.85S
ARBOR VITAE    PTSUNNY   69  56  63 W10       29.85S
WOODRUFF       PTSUNNY   69  56  63 W10       29.85S
RHINELANDER    PTSUNNY   66  53  63 W10       29.87R
EAGLE RIVER    MOSUNNY   68  50  51 NW8       29.84S
LAND O LAKES   PTSUNNY   65  51  58 NW6       29.85S
PHILLIPS       CLOUDY    67  54  63 W9        29.87S
TOMAHAWK       PTSUNNY   67  54  63 W10G21    29.87R
MEDFORD        CLOUDY    68  54  60 NW9G17    29.88S
MERRILL        NOT AVBL
$$

WIZ029-030-035-036-043>047-040000-
CENTRAL WISCONSIN

CITY           SKY/WX    TMP DP  RH WIND       PRES   REMARKS
WAUSAU         PTSUNNY   71  52  50 NW16      29.84R
MOSINEE        NOT AVBL
MARSHFIELD     MOSUNNY   73  51  46 NW16G22   29.87R
STEVENS POINT  PTSUNNY   73  51  47 W12G20    29.86R
WAUPACA        PTSUNNY   77  52  40 W12G18    29.83S
WAUTOMA        NOT AVBL
WISC RAPIDS    MOSUNNY   77  48  35 NW14G23   29.86S
CAMP DOUGLAS   NOT AVBL
$$

WIZ011>013-019>022-031-037>040-048>050-040000-
NORTHEAST WISCONSIN

CITY           SKY/WX    TMP DP  RH WIND       PRES   REMARKS
ANTIGO         CLOUDY    68  53  58 W12G20    29.85S
SHAWANO        LGT RAIN  72  55  56 W8        29.83R
OCONTO         PTSUNNY   74  53  46 NW8       29.79S
STURGEON BAY   MOSUNNY   72  54  53 NW12      29.82S
GREEN BAY      CLOUDY    73  56  54 NW9       29.81R
MANITOWOC      NOT AVBL
APPLETON       PTSUNNY   73  48  40 W17       29.84R
CLINTONVILLE   CLOUDY    73  50  43 N7        29.82S
OSHKOSH        MOSUNNY   76  52  43 NW13G22   29.82S
$$

WIZ032>034-041-042-053>061-040000-
SOUTHWEST WISCONSIN

CITY           SKY/WX    TMP DP  RH WIND       PRES   REMARKS
LA CROSSE      MOSUNNY   79  51  37 NW13      29.87S
SPARTA         SUNNY     79  45  29 W10G20    29.88S
VIROQUA        SUNNY     75  51  42 NW9       29.90S
BOSCOBEL       SUNNY     80  52  37 NW7       29.88S HX  80
PRAIRIE DU CHI SUNNY     80  46  30 W12       29.88S
PLATTEVILLE    SUNNY     78  52  39 W13       29.90S
$$

WIZ056-057-062-063-064-067-068-040000-
SOUTH CENTRAL WISCONSIN

CITY           SKY/WX    TMP DP  RH WIND       PRES   REMARKS
REEDSBURG      MOSUNNY   79  49  35 NW14G21   29.87R
BARABOO/DELLS  SUNNY     78  44  29 NW13G22   29.87S
LONE ROCK      NOT AVBL
MINERAL POINT  SUNNY     79  45  29 NW12      29.89S
MADISON        MOSUNNY   79  50  36 NW7       29.86R
MIDDLETON      MOSUNNY   80  45  28 W10G16    29.87S
WATERTOWN      SUNNY     78  51  38 NW12G17   29.85R
MONROE         SUNNY     79  48  34 W15G21    29.88S
JANESVILLE     MOSUNNY   81  48  32 W12       29.86S HX  80
$$

WIZ051-052-058>065-066-070>072-040000-
SOUTHEAST WISCONSIN

CITY           SKY/WX    TMP DP  RH WIND       PRES   REMARKS
MILWAUKEE      MOSUNNY   81  48  31 NW12      29.84R HX  80
WAUKESHA       MOSUNNY   77  46  33 W17G29    29.86R
MILWAUKEE/TIMM MOSUNNY   79  43  27 NW14G22   29.84S
RACINE         MOSUNNY   80  49  33 W12       29.85S
BURLINGTON     SUNNY     78  46  32 W13G18    29.86S
KENOSHA        SUNNY     78  53  41 W12       29.85S
FOND DU LAC    PTSUNNY   77  52  41 NW10      29.83R
SHEBOYGAN      CLOUDY    76  53  44 NW13      29.82R
WEST BEND      PTSUNNY   79  45  29 W12       29.83S
JUNEAU         MOSUNNY   76  52  42 W9        29.86R
$$

LSZ147-162-040000-
LAKE SUPERIOR

STATION/POSITION TIME  TEMP    WIND        PRES    WAVE
                       AIR SEA DIR/SP/G            HT/PER
                 (UTC) (F)     (DEG/KT/KT) (MB)    (FT/S)
W MID LAKE BUOY  2150   59 56  240/ 10/ 12 1008.4R   1/ 3
DEVILS ISLAND    2200   60     270/ 16/ 19 1009.9R
PORT WING        2200   69     250/ 11/ 14 1010.2
SAXON HARBOR     2200   71     280/  9     1009.8
$$

LMZ867-665-643>646-040000-
LAKE MICHIGAN

STATION/POSITION TIME  TEMP    WIND        PRES    WAVE
                       AIR SEA DIR/SP/G            HT/PER
                 (UTC) (F)     (DEG/KT/KT) (MB)    (FT/S)
CHAMBERS ISLAND  2200   74     290/  6/ 11 1008.5R
S GREEN BAY BUOY 2200   71 70  310/ 12/ 14 1010.1
N MID LAKE BUOY  2150   65 68  320/ 10/ 12 1008.0R   2/ 3
NORTHPORT PIER   2200   68      10/  3/  5 1008.5R
SISTER BAY       2218   69     360/  9/ 10   N/A
ALGOMA LAKESHORE 2242          330/ 15/ 18   N/A
KEWAUNEE LAKESHO 2200   74     310/  5/  9 1008.4R
SHEBOYGAN LAKESH 2200   77     300/ 13/ 17 1009.4R
PORT WASHINGTON  2240   80     300/  7/ 14 1010.5R
ATWATER BUOY     2200   69 48  300/ 16/ 17 1011.5R
MILWAUKEE LAKESH 2200   78     300/ 14/ 22   N/A
KENOSHA   LAKESH 2200   79     290/ 12/ 19 1010.2R
$$

TC  - TEMPERATURE IN CELSIUS
VSB - VISIBILITY IN STATUTE MILES
WCI - WIND CHILL INDEX
HX  - HEAT INDEX



USA.gov is the U.S. government's official web portal to all federal, state and local government web resources and services.